Regional Weather Roundup
Issued by NWS

Home | Current Version | Previous Version | Text Only | Print | Product List | Glossary On
Versions: 1 2 3 4 5 6 7 8 9 10 11 12 13 14 15 16 17 18 19 20 21 22 23 24 25 26 27
000
ASUS42 KTBW 261416
RWRFL
FLORIDA REGIONAL WEATHER ROUNDUP
NATIONAL WEATHER SERVICE TAMPA BAY RUSKIN FL
1000 AM EDT MON SEP 26 2016

NOTE: "FAIR" INDICATES FEW OR NO CLOUDS BELOW 12,000 FEET WITH NO
SIGNIFICANT WEATHER AND/OR OBSTRUCTIONS TO VISIBILITY.

FLZ001>010-012>015-112-114-115-261500-
PANHANDLE FLORIDA

CITY           SKY/WX    TMP DP  RH WIND       PRES   REMARKS
PENSACOLA      SUNNY     78  71  79 CALM      30.01S
PENSACOLA NAS  PTSUNNY   81  74  79 CALM      30.02R THUNDER
MILTON NAS     CLOUDY    74  70  87 CALM      30.03
CRESTVIEW      MOSUNNY   77  70  79 E3        30.05R
DUKE FIELD     MOSUNNY   77  69  77 E1        30.02R
VALPARAISO     MOSUNNY   79  70  73 NE5       30.02R
MARY ESTHER    SUNNY     80  71  75 NE5       30.00S
TRI COUNTY     FAIR      78  71  79 E6        30.04S
PANAMA CITY    SUNNY     79  72  78 NE6       30.02R
TYNDALL AFB    SUNNY     78  73  84 E6        30.03R
APALACHICOLA   SUNNY     82  77  84 NE6       30.01S

STATION/POSITION SKY/WX   TEMP    WIND        PRES    WAVE   SWELL
                          AIR SEA DIR/SP/G            HT/PER HT/PER
                          (F)     (DEG/KT/KT) (MB)    (FT/S) (FT/S)
30.1N   87.6W              82 86  260/  8/ 10 1016.3S   1
29.2N   88.2W              83 85  350/  4/  6 1015.5R
28.8N   86.0W              84 85              1016.4R   0
PANAMA CITY BEAC           78 85   50/  5/  7 1016.6S
TOWER C                    82      70/  5/  6 1016.8R
28.5N   84.5W              85 85   60/  4/  6 1015.8R   1

$$
FLZ011-016>038-118-127-128-134-139-239-261500-
NORTH FLORIDA

CITY           SKY/WX    TMP DP  RH WIND       PRES   REMARKS
MARIANNA       SUNNY     76  72  87 E6        30.03R
TALLAHASSEE    MOSUNNY   81  73  76 E6        30.04R
PERRY          SUNNY     80  74  84 NE5       30.04S
CROSS CITY     MOSUNNY   79  73  83 NE3       30.03S
LAKE CITY      PTSUNNY   72  72 100 CALM      30.04S
GAINESVILLE    MOSUNNY   81  73  76 N5        30.03S
WILLISTON      SUNNY     82  77  83 VRB5      30.02S
PALATKA        FAIR      79  77  94 N3        30.02S
MAYPORT NAS    CLOUDY    79  73  82 NE14      30.01S
JACKSONVILLE   CLOUDY    76  75  97 N7        30.02R
JAX NAS        CLOUDY    81  72  74 NW12      30.01F
FERNANDINA BEA FAIR      79  73  83 NE7       30.00S
ST AUGUSTINE   PTSUNNY   79  74  84 VRB6      30.01F
PALM COAST     SUNNY    N/A N/A N/A CALM      30.02S

STATION/POSITION SKY/WX   TEMP    WIND        PRES    WAVE   SWELL
                          AIR SEA DIR/SP/G            HT/PER HT/PER
                          (F)     (DEG/KT/KT) (MB)    (FT/S) (FT/S)
SHELL POINT                76      50/  4/  8 1015.5
KEATON BEACH               79      70/  8/ 10 1016.6R
CEDAR KEY                  79      60/  8/  9 1016.9R
FERNANDINA                 81 84   30/  6/ 13 1016.1R
30.7N   81.3W                 82                N/A     4/10   2/11
MAYPORT                    81 84   50/ 12/ 15 1016.4R
31.4N   80.9W              79 82   80/ 17/ 21 1016.7R   4/ 5   2/10
ST AUGUSTINE               78 83  300/  7/  8 1016.8F

$$
FLZ040-043>046-052-053-057-058-063-144-261500-
INTERIOR CENTRAL FLORIDA

CITY           SKY/WX    TMP DP  RH WIND       PRES   REMARKS
OCALA          MOSUNNY   81  72  74 CALM      30.03R
THE VILLAGES     N/A     82  79  89 CALM      29.93R
LEESBURG       SUNNY     82  72  71 CALM      30.02S
SANFORD        SUNNY     82  74  76 CALM      30.02R
ORLANDO EXEC   MOSUNNY   81  75  82 CALM      30.02R
ORLANDO INTL   MOSUNNY   81  74  79 S5        30.02R
KISSIMMEE      MOSUNNY   82  74  76 CALM      30.03R
WINTER HAVEN   MOSUNNY   82  73  74 CALM      30.03S
LAKELAND       SUNNY     82  75  78 CALM      30.02S
BARTOW         MOSUNNY   81  73  78 VRB5      30.02S
OKEECHOBEE     MOSUNNY   81  73  78 CALM      30.02R

$$
FLZ041-047-054-059-064-141-147-261500-
EAST CENTRAL FLORIDA

CITY           SKY/WX    TMP DP  RH WIND       PRES   REMARKS
ORMOND BEACH   MOSUNNY   77  75  94 NW3       30.02
DAYTONA BEACH  MOSUNNY   81  74  79 W3        30.02R
DELAND         MOSUNNY   81  73  78 NW5       30.01S
NEW SMYRNA BEA MOSUNNY   79  73  83 W7        30.02S
JFK SPACE CTR  MOSUNNY   82  73  74 W3        30.01R
TITUSVILLE     SUNNY     79  77  94 W6        30.03R
CAPE CANAVERAL MOSUNNY   82  73  72 W7        30.00S
PATRICK AFB    MOSUNNY   82  74  77 NW5       30.01R
MELBOURNE      MOSUNNY   81  73  76 CALM      30.01R
VERO BEACH     MOSUNNY   83  73  72 W3        30.02R
FT PIERCE      PTSUNNY   83  74  74 CALM      30.01R
STUART         MOSUNNY   84  75  74 VRB5      30.02R

STATION/POSITION SKY/WX   TEMP    WIND        PRES    WAVE   SWELL
                          AIR SEA DIR/SP/G            HT/PER HT/PER
                          (F)     (DEG/KT/KT) (MB)    (FT/S) (FT/S)
28.5N   80.2W              81 84  290/  6/  8 1016.6R
TRIDENT PIER               81 85  280/  3/  4 1016.6R
28.4N   80.5W                 85                N/A     2/ 9
27.5N   80.2W                 85                N/A     2/ 9

$$
FLZ050-056-061-142-242-148-248-149-249-151-251-155-255-
160-260-261500-
WEST CENTRAL FLORIDA

CITY           SKY/WX    TMP DP  RH WIND       PRES   REMARKS
CRYSTAL RIVER  FAIR      81  72  74 NE5       30.02R
INVERNESS      FAIR      79  75  89 N3        30.03R
BROOKSVILLE    SUNNY     81  76  84 SE5       30.02R
CLEARWATER AIR FAIR      81  75  83 SE5       30.00S
ST PETE CLEARW MOSUNNY   83  77  82 S9        30.00S
TAMPA INTL     PTSUNNY   83  76  79 S7        30.01R
TAMPA EXEC     MOSUNNY   84  73  70 S6        30.01S
PLANT CITY     SUNNY     84  77  79 S6        30.03S
MACDILL AFB    MOSUNNY   83  80  89 S8        30.01R HX  96
PETER O KNIGHT MOSUNNY   84  79  84 S6        30.01S HX  96
ST PETERSBURG  MOSUNNY   82  76  81 S9        29.99R
SARASOTA       SUNNY     84  76  76 SE8       30.00R
VENICE         FAIR      79  77  94 VRB3      30.01S

STATION/POSITION SKY/WX   TEMP    WIND        PRES    WAVE   SWELL
                          AIR SEA DIR/SP/G            HT/PER HT/PER
                          (F)     (DEG/KT/KT) (MB)    (FT/S) (FT/S)
27.3N   84.2W                 86                N/A     1
CLEARWATER BEACH           80 86  120/  6/ 11 1015.9R
MIDDLE TAMPA BAY                  150/ 10/ 13 1016.1R
VENICE                     77 86  110/  4/  5 1015.5S

$$
FLZ066-069-070-075>078-162-262-165-265-261500-
SOUTHWEST FLORIDA AND KEYS

CITY           SKY/WX    TMP DP  RH WIND       PRES   REMARKS
PUNTA GORDA    CLOUDY    77  75  93 SE3       30.03R
FT MYERS       CLOUDY    77  75  93 E5        30.00R
SOUTHWEST INTL CLOUDY    77  74  90 CALM      30.01R
NAPLES         CLOUDY    78  75  90 NE5       30.01R
MARATHON       CLOUDY    86  76  71 CALM      30.00R HX  96
KEY WEST NAS   CLOUDY    84  73  69 CALM      29.98S
KEY WEST INTL  MOSUNNY   84  77  79 E3        29.99R

STATION/POSITION SKY/WX   TEMP    WIND        PRES    WAVE   SWELL
                          AIR SEA DIR/SP/G            HT/PER HT/PER
                          (F)     (DEG/KT/KT) (MB)    (FT/S) (FT/S)
NAPLES                        87              1015.6R
26.0N   85.6W              83 85   50/  4/  6 1016.2R   1/ 3
DRY TORTUGAS               83     360/  3/  4 1015.5R
SAND KEY                   83     190/  2/  3 1015.9R
LONG KEY                   82 86   CALM  /  1 1016.7R

$$
FLZ067-068-071>074-168-172>174-261500-
SOUTHEAST FLORIDA

CITY           SKY/WX    TMP DP  RH WIND       PRES   REMARKS
W PALM BEACH   PTSUNNY   85  73  67 N3        30.01R
BOCA RATON     MOSUNNY   86  73  66 NW3       30.01R
FT LAUDER-EXEC MOSUNNY   83  73  72 CALM      30.00R
FT LAUDERDALE  CLOUDY    82  73  74 SW3       30.00R
POMPANO BEACH  MOSUNNY   83  74  74 S3        30.01R
PEMBROKE PINES PTSUNNY   81  75  82 CALM      30.02R
OPA LOCKA      CLOUDY    84  71  65 NE5       30.01R
MIAMI          CLOUDY    84  74  71 CALM      30.00S
WEST KENDALL   CLOUDY    83  76  79 NE3       30.00R
HOMESTEAD      CLOUDY    83  76  79 E1        30.00R

STATION/POSITION SKY/WX   TEMP    WIND        PRES    WAVE   SWELL
                          AIR SEA DIR/SP/G            HT/PER HT/PER
                          (F)     (DEG/KT/KT) (MB)    (FT/S) (FT/S)
PORT EVERGLADES            78     200/  3/  4 1015.6R
VIRGINIA KEY               83 90   90/  3/  4 1015.9R
LAKE WORTH                        290/  1/  3   N/A
FOWEY ROCKS                82 85  130/  7/  8 1016.1R
SETTLEMENT POINT           83     100/  4/  4 1016.8R

$$





USA.gov is the U.S. government's official web portal to all federal, state and local government web resources and services.